Content
SEND FEEDBACK

Daily
Averages
Monthly
Summary
United States of America

DOWNIEVILLE, CALIFORNIA


Home > North America > United States > California
Elevation: 5045 feet     Latitude: 39 34N     Longitude: 120 38W

WEATHER
 
SELECT A DAY
Number of Records: 230,869;   Date Range: 1/1/95 - 7/20/14
 
SHARE

PRINT THIS DATA

[ ← Previous Day ]
WEATHER ALMANAC - MAY 4, 2013
[ Next Day → ]
[ °C ]   °F
Weather ElementAverageHighLow
Temperature56.6 °F64 °F (11:52 am)51.1 °F (7:52 pm)
Dewpoint25 °F33.1 °F (4:52 pm)15.1 °F (1:52 am)
Humidity31.2 %47 % (6:52 pm)18 % (1:52 am)
Barometer29.65 in29.78 in (1:52 am)29.56 in (11:52 pm)
Wind Speed9.4 mph17.3 mph (5:52 pm)
Wind Gust29.9 mph (5:52 pm)
Weather ElementAverage
Visibility10 mi
Wind DirectionENE (70.9 °)

Weather ElementTotal
Precipitation---
Heating Degree Days7.5 (Base 65)
Growing Degree Days7.6 (Base 50)
Averaged from 23 records on May 4, 2013
WEATHER CONDITIONS BREAKOUT
WIND DIRECTION BREAKOUT
WEATHER BY HOUR - MAY 4, 2013
[ °C ]   °F
Local TimeTemperatureDewpointHumidityBarometerVisibilityWind DirectionWind SpeedGust SpeedPrecipitationEventsConditions
1:52 AM59.0 °F15.1 °F18 %29.78 in10.0 miNE (50°)11.5 mph28.8 mphClear
2:52 AM57.0 °F16.0 °F20 %29.76 in10.0 miNE (50°)10.4 mph21.9 mphClear
3:52 AM55.9 °F17.1 °F22 %29.76 in10.0 miNE (50°)10.4 mph18.4 mphClear
4:52 AM55.9 °F18.0 °F23 %29.74 in10.0 miNE (50°)11.5 mph24.2 mphClear
5:52 AM55.0 °F18.0 °F23 %29.74 in10.0 miEast (80°)10.4 mph19.6 mphClear
6:52 AM53.1 °F21.0 °F29 %29.74 in10.0 miEast (90°)8.1 mphClear
7:52 AM55.9 °F23.0 °F28 %29.70 in10.0 miENE (60°)8.1 mphClear
8:52 AM59.0 °F24.1 °F26 %29.68 in10.0 miNE (50°)8.1 mph20.7 mphClear
9:52 AM62.1 °F24.1 °F23 %29.66 in10.0 miENE (60°)6.9 mphClear
10:52 AM63.0 °F21.0 °F20 %29.63 in10.0 miSSE (160°)3.5 mphClear
11:52 AM64.0 °F21.0 °F19 %29.61 in10.0 miVariable3.5 mphClear
12:52 PM64.0 °F26.1 °F24 %29.59 in10.0 miVariable5.8 mphOvercast
1:52 PM63.0 °F28.0 °F27 %29.58 in10.0 miNW (320°)6.9 mphMostly Cloudy
2:52 PM59.0 °F27.0 °F29 %29.60 in10.0 miENE (70°)10.4 mph21.9 mphOvercast
3:52 PM55.0 °F32.0 °F42 %29.62 in10.0 miENE (60°)13.8 mph25.3 mphMostly Cloudy
4:52 PM54.0 °F33.1 °F45 %29.62 in10.0 miNE (50°)11.5 mph18.4 mphClear
5:52 PM54.0 °F32.0 °F43 %29.62 in10.0 miENE (60°)17.3 mph29.9 mphClear
6:52 PM52.0 °F32.0 °F47 %29.62 in10.0 miENE (70°)15.0 mph29.9 mphClear
7:52 PM51.1 °F30.9 °F46 %29.61 in10.0 miENE (70°)12.7 mph26.5 mphClear
8:52 PM51.1 °F30.9 °F46 %29.60 in10.0 miENE (70°)10.4 mph19.6 mphClear
9:52 PM52.0 °F28.9 °F41 %29.58 in10.0 miEast (80°)8.1 mph20.7 mphClear
10:52 PM53.1 °F28.0 °F38 %29.57 in10.0 miEast (80°)8.1 mph21.9 mphClear
11:52 PM53.1 °F28.0 °F38 %29.56 in10.0 miVariable4.6 mphClear
Hourly data recorded from KBLU, located miles away from Downieville, California







STORIES FROM OUR PARTNERS